Time,TemperatureF,DewpointF,PressureIn,WindDirection,WindDirectionDegrees,WindSpeedMPH,WindSpeedGustMPH,Humidity,HourlyPrecipIn,Conditions,Clouds,dailyrainin,SoftwareType,DateUTC
2013-10-01 00:01:00,56.9,51.1,29.81,SSW,198,5.0,7.0,81,0.00,,---,0.00,VWS V14.01,2013-10-01 04:01:00,
2013-10-01 00:02:00,57.0,51.2,29.81,South,179,3.0,7.0,81,0.00,,---,0.00,VWS V14.01,2013-10-01 04:02:00,
2013-10-01 00:07:00,57.1,51.0,29.81,South,173,4.0,6.0,80,0.00,,---,0.00,VWS V14.01,2013-10-01 04:07:00,
2013-10-01 00:12:00,57.2,51.1,29.81,South,176,7.0,7.0,80,0.00,,---,0.00,VWS V14.01,2013-10-01 04:12:00,
2013-10-01 00:17:00,57.3,51.2,29.81,South,169,2.0,7.0,80,0.00,,---,0.00,VWS V14.01,2013-10-01 04:17:00,
2013-10-01 00:22:00,57.3,51.2,29.81,South,184,5.0,5.0,80,0.00,,---,0.00,VWS V14.01,2013-10-01 04:22:00,
2013-10-01 00:27:00,57.4,51.0,29.81,South,173,4.0,8.0,79,0.00,,---,0.00,VWS V14.01,2013-10-01 04:27:00,
2013-10-01 00:32:00,57.4,51.0,29.81,SSE,165,5.0,6.0,79,0.00,,---,0.00,VWS V14.01,2013-10-01 04:32:00,
2013-10-01 00:37:00,57.6,51.1,29.81,SSW,192,4.0,7.0,79,0.00,,---,0.00,VWS V14.01,2013-10-01 04:37:00,
2013-10-01 00:42:00,57.7,51.2,29.82,SSW,197,3.0,11.0,79,0.00,,---,0.00,VWS V14.01,2013-10-01 04:42:00,
2013-10-01 00:47:00,57.8,51.0,29.82,South,190,1.0,7.0,78,0.00,,---,0.00,VWS V14.01,2013-10-01 04:47:00,
2013-10-01 00:52:00,57.9,51.1,29.82,SW,217,3.0,5.0,78,0.00,,---,0.00,VWS V14.01,2013-10-01 04:52:00,
2013-10-01 00:57:00,57.9,51.4,29.82,SSW,193,5.0,5.0,79,0.00,,---,0.00,VWS V14.01,2013-10-01 04:57:00,
2013-10-01 01:02:00,57.8,51.3,29.82,South,176,2.0,6.0,79,0.00,,---,0.00,VWS V14.01,2013-10-01 05:02:00,
2013-10-01 01:07:00,57.7,51.2,29.82,South,189,0.0,3.0,79,0.00,,---,0.00,VWS V14.01,2013-10-01 05:07:00,
2013-10-01 01:12:00,57.6,51.1,29.82,South,180,2.0,2.0,79,0.00,,---,0.00,VWS V14.01,2013-10-01 05:12:00,
2013-10-01 01:17:00,57.4,51.0,29.82,SSW,196,1.0,5.0,79,0.00,,---,0.00,VWS V14.01,2013-10-01 05:17:00,
2013-10-01 01:22:00,57.2,51.1,29.82,South,182,1.0,3.0,80,0.00,,---,0.00,VWS V14.01,2013-10-01 05:22:00,
2013-10-01 01:27:00,57.1,51.0,29.82,South,186,5.0,6.0,80,0.00,,---,0.00,VWS V14.01,2013-10-01 05:27:00,
2013-10-01 01:32:00,57.0,50.9,29.82,South,180,5.0,5.0,80,0.00,,---,0.00,VWS V14.01,2013-10-01 05:32:00,
2013-10-01 01:37:00,56.9,50.8,29.83,South,183,3.0,6.0,80,0.00,,---,0.00,VWS V14.01,2013-10-01 05:37:00,
2013-10-01 01:42:00,56.9,50.8,29.83,SSE,168,4.0,5.0,80,0.00,,---,0.00,VWS V14.01,2013-10-01 05:42:00,
2013-10-01 01:47:00,56.9,50.8,29.83,South,173,5.0,6.0,80,0.00,,---,0.00,VWS V14.01,2013-10-01 05:47:00,
2013-10-01 01:52:00,56.8,50.7,29.83,South,180,4.0,5.0,80,0.00,,---,0.00,VWS V14.01,2013-10-01 05:52:00,
2013-10-01 01:57:00,56.7,50.6,29.83,South,175,4.0,6.0,80,0.00,,---,0.00,VWS V14.01,2013-10-01 05:57:00,
2013-10-01 02:02:00,56.6,50.8,29.83,South,185,4.0,6.0,81,0.00,,---,0.00,VWS V14.01,2013-10-01 06:02:00,
2013-10-01 02:07:00,56.4,50.7,29.83,South,178,5.0,6.0,81,0.00,,---,0.00,VWS V14.01,2013-10-01 06:07:00,
2013-10-01 02:12:00,56.3,50.5,29.83,SSE,160,6.0,6.0,81,0.00,,---,0.00,VWS V14.01,2013-10-01 06:12:00,
2013-10-01 02:17:00,56.3,50.5,29.83,SSE,159,5.0,9.0,81,0.00,,---,0.00,VWS V14.01,2013-10-01 06:17:00,
2013-10-01 02:22:00,56.4,50.7,29.83,South,169,2.0,6.0,81,0.00,,---,0.00,VWS V14.01,2013-10-01 06:22:00,
2013-10-01 02:27:00,56.4,50.7,29.83,SSW,192,5.0,7.0,81,0.00,,---,0.00,VWS V14.01,2013-10-01 06:27:00,
2013-10-01 02:32:00,56.3,50.2,29.83,South,180,2.0,6.0,80,0.00,,---,0.00,VWS V14.01,2013-10-01 06:32:00,
2013-10-01 02:37:00,56.2,50.1,29.83,South,177,4.0,6.0,80,0.00,,---,0.00,VWS V14.01,2013-10-01 06:37:00,
2013-10-01 02:42:00,56.0,50.3,29.83,SSE,168,5.0,7.0,81,0.00,,---,0.00,VWS V14.01,2013-10-01 06:42:00,
2013-10-01 02:47:00,55.9,50.2,29.83,South,176,4.0,6.0,81,0.00,,---,0.00,VWS V14.01,2013-10-01 06:47:00,
2013-10-01 02:53:00,55.7,50.3,29.83,South,169,3.0,6.0,82,0.00,,---,0.00,VWS V14.01,2013-10-01 06:53:00,
2013-10-01 02:58:00,55.5,50.1,29.82,South,184,2.0,5.0,82,0.00,,---,0.00,VWS V14.01,2013-10-01 06:58:00,
2013-10-01 03:03:00,55.4,50.0,29.82,South,181,2.0,6.0,82,0.00,,---,0.00,VWS V14.01,2013-10-01 07:03:00,
2013-10-01 03:08:00,55.2,50.1,29.82,SSE,164,4.0,7.0,83,0.00,,---,0.00,VWS V14.01,2013-10-01 07:08:00,
2013-10-01 03:13:00,55.1,50.0,29.81,South,182,4.0,7.0,83,0.00,,---,0.00,VWS V14.01,2013-10-01 07:13:00,
2013-10-01 03:18:00,55.0,49.9,29.81,South,171,1.0,9.0,83,0.00,,---,0.00,VWS V14.01,2013-10-01 07:18:00,
2013-10-01 03:23:00,55.0,49.9,29.81,South,180,5.0,7.0,83,0.00,,---,0.00,VWS V14.01,2013-10-01 07:23:00,
2013-10-01 03:28:00,55.0,49.9,29.81,South,185,3.0,6.0,83,0.00,,---,0.00,VWS V14.01,2013-10-01 07:28:00,
2013-10-01 03:33:00,55.0,49.6,29.81,South,175,5.0,6.0,82,0.00,,---,0.00,VWS V14.01,2013-10-01 07:33:00,
2013-10-01 03:38:00,55.0,49.6,29.81,South,170,2.0,7.0,82,0.00,,---,0.00,VWS V14.01,2013-10-01 07:38:00,
2013-10-01 03:43:00,54.9,49.5,29.81,South,178,3.0,5.0,82,0.00,,---,0.00,VWS V14.01,2013-10-01 07:43:00,
2013-10-01 03:48:00,54.9,49.5,29.81,South,175,2.0,6.0,82,0.00,,---,0.00,VWS V14.01,2013-10-01 07:48:00,
2013-10-01 03:53:00,54.9,49.5,29.81,SSW,192,3.0,6.0,82,0.00,,---,0.00,VWS V14.01,2013-10-01 07:53:00,
2013-10-01 03:58:00,54.9,49.5,29.81,South,171,4.0,7.0,82,0.00,,---,0.00,VWS V14.01,2013-10-01 07:58:00,
2013-10-01 04:03:00,54.9,49.5,29.81,South,183,2.0,6.0,82,0.00,,---,0.00,VWS V14.01,2013-10-01 08:03:00,
2013-10-01 04:08:00,54.9,49.5,29.81,South,172,4.0,6.0,82,0.00,,---,0.00,VWS V14.01,2013-10-01 08:08:00,
2013-10-01 04:13:00,54.9,49.5,29.81,South,186,3.0,7.0,82,0.00,,---,0.00,VWS V14.01,2013-10-01 08:13:00,
2013-10-01 04:18:00,54.9,49.5,29.80,South,175,3.0,6.0,82,0.00,,---,0.00,VWS V14.01,2013-10-01 08:18:00,
2013-10-01 04:23:00,54.8,49.4,29.80,South,184,4.0,7.0,82,0.00,,---,0.00,VWS V14.01,2013-10-01 08:23:00,
2013-10-01 04:28:00,54.7,49.3,29.80,South,190,4.0,7.0,82,0.00,,---,0.00,VWS V14.01,2013-10-01 08:28:00,
2013-10-01 04:33:00,54.7,49.3,29.80,South,182,5.0,7.0,82,0.00,,---,0.00,VWS V14.01,2013-10-01 08:33:00,
2013-10-01 04:38:00,54.7,49.3,29.80,South,175,3.0,7.0,82,0.00,,---,0.00,VWS V14.01,2013-10-01 08:38:00,
2013-10-01 04:43:00,54.6,49.2,29.80,South,184,5.0,7.0,82,0.00,,---,0.00,VWS V14.01,2013-10-01 08:43:00,
2013-10-01 04:49:00,54.6,49.2,29.80,South,178,6.0,6.0,82,0.00,,---,0.00,VWS V14.01,2013-10-01 08:49:00,
2013-10-01 04:54:00,54.6,49.5,29.80,South,175,5.0,6.0,83,0.00,,---,0.00,VWS V14.01,2013-10-01 08:54:00,
2013-10-01 04:59:00,54.5,49.5,29.79,South,182,4.0,7.0,83,0.00,,---,0.00,VWS V14.01,2013-10-01 08:59:00,
2013-10-01 05:04:00,54.4,49.3,29.79,SSE,159,4.0,9.0,83,0.00,,---,0.00,VWS V14.01,2013-10-01 09:04:00,
2013-10-01 05:09:00,54.5,49.5,29.79,SSW,192,9.0,9.0,83,0.00,,---,0.00,VWS V14.01,2013-10-01 09:09:00,
2013-10-01 05:14:00,54.6,49.5,29.79,South,184,8.0,10.0,83,0.00,,---,0.00,VWS V14.01,2013-10-01 09:14:00,
2013-10-01 05:19:00,54.8,49.7,29.79,South,176,4.0,11.0,83,0.00,,---,0.00,VWS V14.01,2013-10-01 09:19:00,
2013-10-01 05:24:00,55.0,49.9,29.79,SSW,197,4.0,10.0,83,0.00,,---,0.00,VWS V14.01,2013-10-01 09:24:00,
2013-10-01 05:29:00,55.2,50.1,29.79,SSW,200,5.0,12.0,83,0.00,,---,0.00,VWS V14.01,2013-10-01 09:29:00,
2013-10-01 05:34:00,55.4,50.3,29.79,South,188,4.0,6.0,83,0.00,,---,0.00,VWS V14.01,2013-10-01 09:34:00,
2013-10-01 05:39:00,55.6,50.5,29.79,SSW,198,4.0,9.0,83,0.00,,---,0.00,VWS V14.01,2013-10-01 09:39:00,
2013-10-01 05:44:00,55.8,50.7,29.79,South,188,4.0,9.0,83,0.00,,---,0.00,VWS V14.01,2013-10-01 09:44:00,
2013-10-01 05:49:00,55.9,50.8,29.79,South,188,4.0,10.0,83,0.00,,---,0.00,VWS V14.01,2013-10-01 09:49:00,
2013-10-01 05:54:00,56.0,50.9,29.79,SSW,207,4.0,10.0,83,0.00,,---,0.00,VWS V14.01,2013-10-01 09:54:00,
2013-10-01 05:59:00,56.1,51.0,29.79,SSW,192,9.0,9.0,83,0.00,,---,0.00,VWS V14.01,2013-10-01 09:59:00,
2013-10-01 06:04:00,56.1,51.0,29.79,South,178,8.0,8.0,83,0.00,,---,0.00,VWS V14.01,2013-10-01 10:04:00,
2013-10-01 06:09:00,56.1,51.0,29.78,South,177,5.0,13.0,83,0.00,,---,0.00,VWS V14.01,2013-10-01 10:09:00,
2013-10-01 06:14:00,56.2,51.1,29.78,SSE,150,6.0,9.0,83,0.00,,---,0.00,VWS V14.01,2013-10-01 10:14:00,
2013-10-01 06:19:00,56.2,51.1,29.78,South,173,6.0,10.0,83,0.00,,---,0.00,VWS V14.01,2013-10-01 10:19:00,
2013-10-01 06:24:00,56.3,51.2,29.78,South,169,4.0,10.0,83,0.00,,---,0.00,VWS V14.01,2013-10-01 10:24:00,
2013-10-01 06:29:00,56.4,51.3,29.78,South,191,5.0,11.0,83,0.00,,---,0.00,VWS V14.01,2013-10-01 10:29:00,
2013-10-01 06:34:00,56.4,51.3,29.77,South,184,6.0,10.0,83,0.00,,---,0.00,VWS V14.01,2013-10-01 10:34:00,
2013-10-01 06:39:00,56.3,51.5,29.78,South,183,4.0,8.0,84,0.00,,---,0.00,VWS V14.01,2013-10-01 10:39:00,
2013-10-01 06:44:00,56.3,51.5,29.78,SSW,192,5.0,7.0,84,0.00,,---,0.00,VWS V14.01,2013-10-01 10:44:00,
2013-10-01 06:49:00,56.3,51.9,29.78,SSW,194,3.0,8.0,85,0.00,,---,0.00,VWS V14.01,2013-10-01 10:49:00,
2013-10-01 06:54:00,56.4,52.0,29.78,South,178,7.0,7.0,85,0.00,,---,0.00,VWS V14.01,2013-10-01 10:54:00,
2013-10-01 07:00:00,56.5,52.0,29.79,South,186,4.0,7.0,85,0.00,,---,0.00,VWS V14.01,2013-10-01 11:00:00,
2013-10-01 07:05:00,56.7,52.2,29.79,South,178,4.0,7.0,85,0.00,,---,0.00,VWS V14.01,2013-10-01 11:05:00,
2013-10-01 07:10:00,56.7,52.2,29.78,South,187,6.0,10.0,85,0.00,,---,0.00,VWS V14.01,2013-10-01 11:10:00,
2013-10-01 07:15:00,56.7,52.2,29.78,South,175,6.0,9.0,85,0.00,,---,0.00,VWS V14.01,2013-10-01 11:15:00,
2013-10-01 07:20:00,56.8,52.3,29.78,South,188,3.0,3.0,85,0.00,,---,0.00,VWS V14.01,2013-10-01 11:20:00,
2013-10-01 07:25:00,56.7,52.2,29.78,SSE,159,5.0,9.0,85,0.00,,---,0.00,VWS V14.01,2013-10-01 11:25:00,
2013-10-01 07:30:00,56.7,52.6,29.78,South,184,1.0,3.0,86,0.00,,---,0.00,VWS V14.01,2013-10-01 11:30:00,
2013-10-01 07:35:00,56.8,52.7,29.78,South,171,4.0,4.0,86,0.00,,---,0.00,VWS V14.01,2013-10-01 11:35:00,
2013-10-01 07:40:00,56.8,52.7,29.78,South,180,3.0,5.0,86,0.00,,---,0.00,VWS V14.01,2013-10-01 11:40:00,
2013-10-01 07:45:00,56.9,53.1,29.78,South,180,2.0,5.0,87,0.00,,---,0.00,VWS V14.01,2013-10-01 11:45:00,
2013-10-01 07:50:00,57.1,53.0,29.79,SSW,194,4.0,4.0,86,0.00,,---,0.00,VWS V14.01,2013-10-01 11:50:00,
2013-10-01 07:55:00,57.4,53.2,29.79,SSW,196,2.0,3.0,86,0.00,,---,0.00,VWS V14.01,2013-10-01 11:55:00,
2013-10-01 08:00:00,57.7,53.5,29.78,South,183,2.0,5.0,86,0.00,,---,0.00,VWS V14.01,2013-10-01 12:00:00,
2013-10-01 08:05:00,58.0,53.8,29.78,SSW,202,2.0,2.0,86,0.00,,---,0.00,VWS V14.01,2013-10-01 12:05:00,
2013-10-01 08:10:00,58.1,53.9,29.78,South,178,3.0,4.0,86,0.00,,---,0.00,VWS V14.01,2013-10-01 12:10:00,
2013-10-01 08:15:00,58.3,54.1,29.79,SSW,200,3.0,5.0,86,0.00,,---,0.00,VWS V14.01,2013-10-01 12:15:00,
2013-10-01 08:21:00,58.5,54.3,29.78,SSW,212,3.0,9.0,86,0.00,,---,0.00,VWS V14.01,2013-10-01 12:21:00,
2013-10-01 08:26:00,58.7,54.5,29.78,SW,215,3.0,4.0,86,0.00,,---,0.00,VWS V14.01,2013-10-01 12:26:00,
2013-10-01 08:31:00,58.7,54.5,29.78,SSW,202,3.0,4.0,86,0.00,,---,0.00,VWS V14.01,2013-10-01 12:31:00,
2013-10-01 08:36:00,58.9,54.7,29.78,SSW,195,4.0,4.0,86,0.00,,---,0.00,VWS V14.01,2013-10-01 12:36:00,
2013-10-01 08:41:00,59.0,54.8,29.78,SSW,194,4.0,4.0,86,0.00,,---,0.00,VWS V14.01,2013-10-01 12:41:00,
2013-10-01 08:46:00,59.0,54.8,29.78,SW,234,1.0,5.0,86,0.00,,---,0.00,VWS V14.01,2013-10-01 12:46:00,
2013-10-01 08:51:00,59.5,55.3,29.78,SW,218,3.0,6.0,86,0.00,,---,0.00,VWS V14.01,2013-10-01 12:51:00,
2013-10-01 08:56:00,59.8,55.6,29.77,SW,223,5.0,9.0,86,0.00,,---,0.00,VWS V14.01,2013-10-01 12:56:00,
2013-10-01 09:01:00,60.2,56.0,29.77,SSW,205,4.0,8.0,86,0.00,,---,0.00,VWS V14.01,2013-10-01 13:01:00,
2013-10-01 09:06:00,60.6,56.4,29.77,SW,220,3.0,10.0,86,0.00,,---,0.00,VWS V14.01,2013-10-01 13:06:00,
2013-10-01 09:11:00,60.9,56.4,29.77,SW,226,5.0,7.0,85,0.00,,---,0.00,VWS V14.01,2013-10-01 13:11:00,
2013-10-01 09:16:00,61.3,56.8,29.77,SSW,208,3.0,7.0,85,0.00,,---,0.00,VWS V14.01,2013-10-01 13:16:00,
2013-10-01 09:21:00,61.6,57.0,29.77,SW,229,4.0,6.0,85,0.00,,---,0.00,VWS V14.01,2013-10-01 13:21:00,
2013-10-01 09:26:00,62.0,57.1,29.77,South,189,1.0,6.0,84,0.00,,---,0.00,VWS V14.01,2013-10-01 13:26:00,
2013-10-01 09:31:00,62.2,57.3,29.76,SW,215,6.0,11.0,84,0.00,,---,0.00,VWS V14.01,2013-10-01 13:31:00,
2013-10-01 09:36:00,62.4,57.5,29.76,SW,234,3.0,9.0,84,0.00,,---,0.00,VWS V14.01,2013-10-01 13:36:00,
2013-10-01 09:41:00,62.8,57.9,29.76,SW,236,7.0,11.0,84,0.00,,---,0.00,VWS V14.01,2013-10-01 13:41:00,
2013-10-01 09:46:00,63.2,58.0,29.76,SW,229,4.0,10.0,83,0.00,,---,0.00,VWS V14.01,2013-10-01 13:46:00,
2013-10-01 09:51:00,63.4,58.2,29.76,SSW,193,6.0,10.0,83,0.00,,---,0.00,VWS V14.01,2013-10-01 13:51:00,
2013-10-01 09:57:00,63.5,58.2,29.76,West,265,7.0,11.0,83,0.00,,---,0.00,VWS V14.01,2013-10-01 13:57:00,
2013-10-01 10:02:00,63.6,58.3,29.75,South,183,4.0,11.0,83,0.00,,---,0.00,VWS V14.01,2013-10-01 14:02:00,
2013-10-01 10:07:00,63.5,58.2,29.75,SW,227,5.0,15.0,83,0.00,,---,0.00,VWS V14.01,2013-10-01 14:07:00,
2013-10-01 10:12:00,63.6,58.3,29.75,SW,214,3.0,10.0,83,0.00,,---,0.00,VWS V14.01,2013-10-01 14:12:00,
2013-10-01 10:17:00,63.7,58.5,29.75,SW,227,8.0,13.0,83,0.00,,---,0.00,VWS V14.01,2013-10-01 14:17:00,
2013-10-01 10:22:00,64.0,58.7,29.75,WSW,250,10.0,10.0,83,0.00,,---,0.00,VWS V14.01,2013-10-01 14:22:00,
2013-10-01 10:27:00,64.5,59.2,29.75,WSW,238,4.0,12.0,83,0.00,,---,0.00,VWS V14.01,2013-10-01 14:27:00,
2013-10-01 10:32:00,64.8,59.2,29.76,SW,223,6.0,11.0,82,0.00,,---,0.00,VWS V14.01,2013-10-01 14:32:00,
2013-10-01 10:37:00,65.2,59.6,29.75,West,273,10.0,11.0,82,0.00,,---,0.00,VWS V14.01,2013-10-01 14:37:00,
2013-10-01 10:42:00,65.5,59.9,29.75,SW,215,6.0,11.0,82,0.00,,---,0.00,VWS V14.01,2013-10-01 14:42:00,
2013-10-01 10:47:00,65.8,60.2,29.75,WSW,246,6.0,9.0,82,0.00,,---,0.00,VWS V14.01,2013-10-01 14:47:00,
2013-10-01 10:52:00,66.2,60.2,29.75,SW,214,12.0,12.0,81,0.00,,---,0.00,VWS V14.01,2013-10-01 14:52:00,
2013-10-01 10:57:00,66.5,60.5,29.75,SW,236,6.0,15.0,81,0.00,,---,0.00,VWS V14.01,2013-10-01 14:57:00,
2013-10-01 11:02:00,66.8,60.8,29.74,WSW,238,5.0,10.0,81,0.00,,---,0.00,VWS V14.01,2013-10-01 15:02:00,
2013-10-01 11:07:00,67.1,61.1,29.74,South,188,4.0,9.0,81,0.00,,---,0.00,VWS V14.01,2013-10-01 15:07:00,
2013-10-01 11:13:00,67.5,61.1,29.74,South,172,9.0,17.0,80,0.00,,---,0.00,VWS V14.01,2013-10-01 15:13:00,
2013-10-01 11:18:00,67.5,61.1,29.74,SW,218,7.0,14.0,80,0.00,,---,0.00,VWS V14.01,2013-10-01 15:18:00,
2013-10-01 11:23:00,67.7,61.3,29.74,SW,234,4.0,14.0,80,0.00,,---,0.00,VWS V14.01,2013-10-01 15:23:00,
2013-10-01 11:28:00,67.6,61.2,29.74,SSW,198,4.0,10.0,80,0.00,,---,0.00,VWS V14.01,2013-10-01 15:28:00,
2013-10-01 11:33:00,67.9,61.5,29.73,SSW,208,6.0,13.0,80,0.00,,---,0.00,VWS V14.01,2013-10-01 15:33:00,
2013-10-01 11:38:00,68.0,61.2,29.73,SE,144,4.0,15.0,79,0.00,,---,0.00,VWS V14.01,2013-10-01 15:38:00,
2013-10-01 11:43:00,68.2,61.8,29.73,SW,227,4.0,11.0,80,0.00,,---,0.00,VWS V14.01,2013-10-01 15:43:00,
2013-10-01 11:48:00,68.6,61.8,29.73,SW,226,5.0,15.0,79,0.00,,---,0.00,VWS V14.01,2013-10-01 15:48:00,
2013-10-01 11:53:00,68.9,61.8,29.72,South,175,6.0,15.0,78,0.00,,---,0.00,VWS V14.01,2013-10-01 15:53:00,
2013-10-01 11:58:00,69.3,62.2,29.72,West,266,6.0,9.0,78,0.00,,---,0.00,VWS V14.01,2013-10-01 15:58:00,
2013-10-01 12:03:00,69.7,62.5,29.72,WSW,257,7.0,10.0,78,0.00,,---,0.00,VWS V14.01,2013-10-01 16:03:00,
2013-10-01 12:08:00,70.0,62.5,29.72,SW,234,6.0,15.0,77,0.00,,---,0.00,VWS V14.01,2013-10-01 16:08:00,
2013-10-01 12:13:00,70.2,62.3,29.72,SSW,192,9.0,16.0,76,0.00,,---,0.00,VWS V14.01,2013-10-01 16:13:00,
2013-10-01 12:18:00,70.3,62.8,29.72,WSW,246,6.0,15.0,77,0.00,,---,0.00,VWS V14.01,2013-10-01 16:18:00,
2013-10-01 12:23:00,70.5,62.6,29.71,WSW,238,14.0,22.0,76,0.00,,---,0.00,VWS V14.01,2013-10-01 16:23:00,
2013-10-01 12:28:00,70.8,62.9,29.71,South,187,10.0,16.0,76,0.00,,---,0.00,VWS V14.01,2013-10-01 16:28:00,
2013-10-01 12:31:00,71.1,63.2,29.71,SSW,212,5.0,14.0,76,0.00,,---,0.00,VWS V14.01,2013-10-01 16:31:00,
2013-10-01 12:36:00,71.4,62.7,29.71,SW,223,5.0,13.0,74,0.00,,---,0.00,VWS V14.01,2013-10-01 16:36:00,
2013-10-01 12:41:00,71.6,62.9,29.71,West,270,7.0,13.0,74,0.00,,---,0.00,VWS V14.01,2013-10-01 16:41:00,
2013-10-01 12:46:00,71.9,63.2,29.71,WSW,243,6.0,8.0,74,0.00,,---,0.00,VWS V14.01,2013-10-01 16:46:00,
2013-10-01 12:51:00,72.2,63.1,29.71,SW,230,9.0,11.0,73,0.00,,---,0.00,VWS V14.01,2013-10-01 16:51:00,
2013-10-01 12:56:00,72.5,63.4,29.71,WSW,238,9.0,11.0,73,0.00,,---,0.00,VWS V14.01,2013-10-01 16:56:00,
2013-10-01 13:01:00,72.7,63.2,29.71,SSW,206,3.0,15.0,72,0.00,,---,0.00,VWS V14.01,2013-10-01 17:01:00,
2013-10-01 13:06:00,72.8,62.9,29.71,SSW,210,11.0,17.0,71,0.00,,---,0.00,VWS V14.01,2013-10-01 17:06:00,
2013-10-01 13:11:00,73.0,63.0,29.70,SSW,192,13.0,13.0,71,0.00,,---,0.00,VWS V14.01,2013-10-01 17:11:00,
2013-10-01 13:17:00,73.3,63.3,29.70,SSE,164,6.0,13.0,71,0.00,,---,0.00,VWS V14.01,2013-10-01 17:17:00,
2013-10-01 13:22:00,73.4,63.0,29.70,SSE,167,14.0,14.0,70,0.00,,---,0.00,VWS V14.01,2013-10-01 17:22:00,
2013-10-01 13:27:00,73.5,62.7,29.70,SSW,202,9.0,15.0,69,0.00,,---,0.00,VWS V14.01,2013-10-01 17:27:00,
2013-10-01 13:32:00,74.0,63.2,29.70,SSW,209,7.0,13.0,69,0.00,,---,0.00,VWS V14.01,2013-10-01 17:32:00,
2013-10-01 13:37:00,74.1,62.9,29.69,WSW,242,12.0,15.0,68,0.00,,---,0.00,VWS V14.01,2013-10-01 17:37:00,
2013-10-01 13:42:00,74.2,63.0,29.69,WSW,250,8.0,15.0,68,0.00,,---,0.00,VWS V14.01,2013-10-01 17:42:00,
2013-10-01 13:47:00,74.5,63.3,29.69,South,186,10.0,15.0,68,0.00,,---,0.00,VWS V14.01,2013-10-01 17:47:00,
2013-10-01 13:52:00,74.6,62.9,29.68,South,171,12.0,17.0,67,0.00,,---,0.00,VWS V14.01,2013-10-01 17:52:00,
2013-10-01 13:57:00,74.6,63.3,29.69,West,265,20.0,20.0,68,0.00,,---,0.00,VWS V14.01,2013-10-01 17:57:00,
2013-10-01 14:02:00,74.7,63.0,29.68,WSW,256,7.0,11.0,67,0.00,,---,0.00,VWS V14.01,2013-10-01 18:02:00,
2013-10-01 14:07:00,75.1,63.0,29.68,WSW,250,10.0,14.0,66,0.00,,---,0.00,VWS V14.01,2013-10-01 18:07:00,
2013-10-01 14:12:00,75.4,62.8,29.67,South,187,13.0,18.0,65,0.00,,---,0.00,VWS V14.01,2013-10-01 18:12:00,
2013-10-01 14:17:00,74.9,62.8,29.68,SW,216,10.0,14.0,66,0.00,,---,0.00,VWS V14.01,2013-10-01 18:17:00,
2013-10-01 14:22:00,75.2,63.5,29.67,West,259,3.0,14.0,67,0.00,,---,0.00,VWS V14.01,2013-10-01 18:22:00,
2013-10-01 14:27:00,75.7,64.0,29.67,WSW,242,9.0,12.0,67,0.00,,---,0.00,VWS V14.01,2013-10-01 18:27:00,
2013-10-01 14:32:00,76.0,63.8,29.67,SSW,198,7.0,14.0,66,0.00,,---,0.00,VWS V14.01,2013-10-01 18:32:00,
2013-10-01 14:37:00,76.2,63.6,29.67,SW,233,5.0,12.0,65,0.00,,---,0.00,VWS V14.01,2013-10-01 18:37:00,
2013-10-01 14:42:00,76.4,63.3,29.68,WSW,242,9.0,14.0,64,0.00,,---,0.00,VWS V14.01,2013-10-01 18:42:00,
2013-10-01 14:47:00,76.7,63.6,29.68,WSW,250,7.0,15.0,64,0.00,,---,0.00,VWS V14.01,2013-10-01 18:47:00,
2013-10-01 14:52:00,76.8,62.8,29.68,SSW,193,12.0,16.0,62,0.00,,---,0.00,VWS V14.01,2013-10-01 18:52:00,
2013-10-01 14:57:00,76.6,62.6,29.68,WSW,243,9.0,17.0,62,0.00,,---,0.00,VWS V14.01,2013-10-01 18:57:00,
2013-10-01 15:02:00,76.6,62.6,29.68,WSW,244,11.0,19.0,62,0.00,,---,0.00,VWS V14.01,2013-10-01 19:02:00,
2013-10-01 15:07:00,76.4,62.4,29.68,West,276,12.0,15.0,62,0.00,,---,0.00,VWS V14.01,2013-10-01 19:07:00,
2013-10-01 15:12:00,76.5,62.5,29.68,West,275,5.0,14.0,62,0.00,,---,0.00,VWS V14.01,2013-10-01 19:12:00,
2013-10-01 15:18:00,76.5,62.1,29.68,SW,233,6.0,22.0,61,0.00,,---,0.00,VWS V14.01,2013-10-01 19:18:00,
2013-10-01 15:23:00,76.4,62.4,29.68,WSW,239,7.0,12.0,62,0.00,,---,0.00,VWS V14.01,2013-10-01 19:23:00,
2013-10-01 15:28:00,76.6,62.6,29.69,WSW,244,9.0,19.0,62,0.00,,---,0.00,VWS V14.01,2013-10-01 19:28:00,
2013-10-01 15:33:00,76.7,61.8,29.68,WSW,242,8.0,18.0,60,0.00,,---,0.00,VWS V14.01,2013-10-01 19:33:00,
2013-10-01 15:38:00,76.9,62.4,29.69,West,259,10.0,17.0,61,0.00,,---,0.00,VWS V14.01,2013-10-01 19:38:00,
2013-10-01 15:43:00,77.0,62.5,29.68,West,269,14.0,19.0,61,0.00,,---,0.00,VWS V14.01,2013-10-01 19:43:00,
2013-10-01 15:48:00,75.7,62.2,29.68,WSW,252,24.0,24.0,63,0.00,,---,0.00,VWS V14.01,2013-10-01 19:48:00,
2013-10-01 15:53:00,74.7,61.7,29.68,WSW,255,21.0,27.0,64,0.00,,---,0.00,VWS V14.01,2013-10-01 19:53:00,
2013-10-01 15:58:00,74.2,62.1,29.69,WSW,243,14.0,23.0,66,0.00,,---,0.00,VWS V14.01,2013-10-01 19:58:00,
2013-10-01 16:03:00,74.4,61.9,29.69,WSW,252,19.0,19.0,65,0.00,,---,0.00,VWS V14.01,2013-10-01 20:03:00,
2013-10-01 16:08:00,74.1,62.0,29.69,WSW,253,14.0,19.0,66,0.00,,---,0.00,VWS V14.01,2013-10-01 20:08:00,
2013-10-01 16:13:00,74.4,62.3,29.69,WSW,254,9.0,18.0,66,0.00,,---,0.00,VWS V14.01,2013-10-01 20:13:00,
2013-10-01 16:18:00,74.7,61.7,29.69,WSW,254,16.0,20.0,64,0.00,,---,0.00,VWS V14.01,2013-10-01 20:18:00,
2013-10-01 16:23:00,74.5,61.5,29.69,WSW,246,11.0,23.0,64,0.00,,---,0.00,VWS V14.01,2013-10-01 20:23:00,
2013-10-01 16:28:00,74.5,62.0,29.69,SW,234,15.0,24.0,65,0.00,,---,0.00,VWS V14.01,2013-10-01 20:28:00,
2013-10-01 16:33:00,74.5,61.5,29.69,WSW,238,22.0,28.0,64,0.00,,---,0.00,VWS V14.01,2013-10-01 20:33:00,
2013-10-01 16:38:00,74.7,61.7,29.69,WSW,252,16.0,21.0,64,0.00,,---,0.00,VWS V14.01,2013-10-01 20:38:00,
2013-10-01 16:43:00,74.7,62.2,29.69,SSW,209,16.0,26.0,65,0.00,,---,0.00,VWS V14.01,2013-10-01 20:43:00,
2013-10-01 16:48:00,74.6,62.1,29.68,WSW,246,20.0,25.0,65,0.00,,---,0.00,VWS V14.01,2013-10-01 20:48:00,
2013-10-01 16:53:00,74.7,62.2,29.68,West,279,10.0,22.0,65,0.00,,---,0.00,VWS V14.01,2013-10-01 20:53:00,
2013-10-01 16:58:00,74.4,62.3,29.69,WSW,256,13.0,27.0,66,0.00,,---,0.00,VWS V14.01,2013-10-01 20:58:00,
2013-10-01 17:03:00,73.7,61.7,29.68,SSW,200,13.0,20.0,66,0.00,,---,0.00,VWS V14.01,2013-10-01 21:03:00,
2013-10-01 17:09:00,73.4,61.8,29.69,SW,233,14.0,23.0,67,0.00,,---,0.00,VWS V14.01,2013-10-01 21:09:00,
2013-10-01 17:14:00,72.9,62.1,29.69,WSW,253,11.0,14.0,69,0.00,,---,0.00,VWS V14.01,2013-10-01 21:14:00,
2013-10-01 17:19:00,72.4,62.1,29.70,SW,223,4.0,14.0,70,0.00,,---,0.00,VWS V14.01,2013-10-01 21:19:00,
2013-10-01 17:24:00,72.0,62.1,29.70,SW,219,16.0,18.0,71,0.00,,---,0.00,VWS V14.01,2013-10-01 21:24:00,
2013-10-01 17:29:00,71.8,62.3,29.70,SSW,210,3.0,17.0,72,0.00,,---,0.00,VWS V14.01,2013-10-01 21:29:00,
2013-10-01 17:34:00,71.9,62.4,29.70,SW,223,11.0,16.0,72,0.00,,---,0.00,VWS V14.01,2013-10-01 21:34:00,
2013-10-01 17:39:00,72.2,62.3,29.71,WSW,239,6.0,21.0,71,0.00,,---,0.00,VWS V14.01,2013-10-01 21:39:00,
2013-10-01 17:44:00,72.1,62.2,29.71,WSW,249,9.0,19.0,71,0.00,,---,0.00,VWS V14.01,2013-10-01 21:44:00,
2013-10-01 17:49:00,72.1,62.6,29.71,SW,234,6.0,17.0,72,0.00,,---,0.00,VWS V14.01,2013-10-01 21:49:00,
2013-10-01 17:54:00,72.0,62.5,29.71,WSW,254,9.0,24.0,72,0.00,,---,0.00,VWS V14.01,2013-10-01 21:54:00,
2013-10-01 17:59:00,72.0,62.5,29.71,SW,234,13.0,24.0,72,0.00,,---,0.00,VWS V14.01,2013-10-01 21:59:00,
2013-10-01 18:04:00,72.1,62.6,29.72,WSW,246,13.0,21.0,72,0.00,,---,0.00,VWS V14.01,2013-10-01 22:04:00,
2013-10-01 18:09:00,72.1,62.6,29.72,WSW,244,11.0,16.0,72,0.00,,---,0.00,VWS V14.01,2013-10-01 22:09:00,
2013-10-01 18:14:00,72.0,62.9,29.72,South,176,4.0,20.0,73,0.00,,---,0.00,VWS V14.01,2013-10-01 22:14:00,
2013-10-01 18:19:00,71.6,62.5,29.72,WSW,248,13.0,18.0,73,0.00,,---,0.00,VWS V14.01,2013-10-01 22:19:00,
2013-10-01 18:24:00,71.3,62.6,29.72,South,171,5.0,17.0,74,0.00,,---,0.00,VWS V14.01,2013-10-01 22:24:00,
2013-10-01 18:29:00,70.9,62.6,29.72,SW,232,9.0,18.0,75,0.00,,---,0.00,VWS V14.01,2013-10-01 22:29:00,
2013-10-01 18:34:00,70.6,62.7,29.72,West,281,10.0,17.0,76,0.00,,---,0.00,VWS V14.01,2013-10-01 22:34:00,
2013-10-01 18:39:00,70.4,62.5,29.73,WSW,245,7.0,21.0,76,0.00,,---,0.00,VWS V14.01,2013-10-01 22:39:00,
2013-10-01 18:44:00,70.3,62.4,29.73,SW,217,11.0,16.0,76,0.00,,---,0.00,VWS V14.01,2013-10-01 22:44:00,
2013-10-01 18:49:00,70.2,62.7,29.73,WSW,254,10.0,20.0,77,0.00,,---,0.00,VWS V14.01,2013-10-01 22:49:00,
2013-10-01 18:54:00,70.2,62.7,29.73,SW,229,7.0,17.0,77,0.00,,---,0.00,VWS V14.01,2013-10-01 22:54:00,
2013-10-01 18:59:00,69.9,62.4,29.73,SW,234,6.0,21.0,77,0.00,,---,0.00,VWS V14.01,2013-10-01 22:59:00,
2013-10-01 19:04:00,69.7,62.2,29.73,West,276,13.0,19.0,77,0.00,,---,0.00,VWS V14.01,2013-10-01 23:04:00,
2013-10-01 19:10:00,69.6,62.4,29.73,WSW,240,9.0,14.0,78,0.00,,---,0.00,VWS V14.01,2013-10-01 23:10:00,
2013-10-01 19:15:00,69.4,62.6,29.73,WSW,238,8.0,14.0,79,0.00,,---,0.00,VWS V14.01,2013-10-01 23:15:00,
2013-10-01 19:20:00,69.3,62.5,29.73,SW,234,9.0,24.0,79,0.00,,---,0.00,VWS V14.01,2013-10-01 23:20:00,
2013-10-01 19:21:00,69.3,62.5,29.73,SW,233,5.0,11.0,79,0.00,,---,0.00,VWS V14.01,2013-10-01 23:21:00,
2013-10-01 19:26:00,69.2,62.4,29.74,WSW,253,5.0,14.0,79,0.00,,---,0.00,VWS V14.01,2013-10-01 23:26:00,
2013-10-01 19:30:00,69.1,62.3,29.74,West,259,7.0,14.0,79,0.00,,---,0.00,VWS V14.01,2013-10-01 23:30:00,
2013-10-01 19:35:00,69.0,62.2,29.74,WSW,242,7.0,11.0,79,0.00,,---,0.00,VWS V14.01,2013-10-01 23:35:00,
2013-10-01 19:40:00,68.8,62.4,29.74,SW,234,6.0,11.0,80,0.00,,---,0.00,VWS V14.01,2013-10-01 23:40:00,
2013-10-01 19:45:00,68.7,62.3,29.74,WSW,241,7.0,10.0,80,0.00,,---,0.00,VWS V14.01,2013-10-01 23:45:00,
2013-10-01 19:50:00,68.6,62.2,29.74,West,265,10.0,12.0,80,0.00,,---,0.00,VWS V14.01,2013-10-01 23:50:00,
2013-10-01 19:55:00,68.4,62.3,29.74,WSW,248,14.0,14.0,81,0.00,,---,0.00,VWS V14.01,2013-10-01 23:55:00,
2013-10-01 20:00:00,68.4,62.3,29.74,SW,227,6.0,12.0,81,0.00,,---,0.00,VWS V14.01,2013-10-02 00:00:00,
2013-10-01 20:05:00,68.3,62.2,29.75,SW,236,8.0,14.0,81,0.00,,---,0.00,VWS V14.01,2013-10-02 00:05:00,
2013-10-01 20:10:00,68.2,62.2,29.74,WSW,254,9.0,12.0,81,0.00,,---,0.00,VWS V14.01,2013-10-02 00:10:00,
2013-10-01 20:15:00,68.1,62.4,29.75,WSW,243,13.0,13.0,82,0.00,,---,0.00,VWS V14.01,2013-10-02 00:15:00,
2013-10-01 20:16:00,68.1,62.4,29.75,WSW,250,9.0,17.0,82,0.00,,---,0.00,VWS V14.01,2013-10-02 00:16:00,
2013-10-01 20:21:00,67.9,62.2,29.75,WSW,250,12.0,14.0,82,0.00,,---,0.00,VWS V14.01,2013-10-02 00:21:00,
2013-10-01 20:26:00,67.9,62.2,29.75,WSW,239,4.0,11.0,82,0.00,,---,0.00,VWS V14.01,2013-10-02 00:26:00,
2013-10-01 20:31:00,67.9,62.2,29.75,WSW,247,7.0,15.0,82,0.00,,---,0.00,VWS V14.01,2013-10-02 00:31:00,
2013-10-01 20:37:00,67.9,62.2,29.75,WSW,253,10.0,14.0,82,0.00,,---,0.00,VWS V14.01,2013-10-02 00:37:00,
2013-10-01 20:42:00,67.7,62.0,29.75,SW,219,9.0,12.0,82,0.00,,---,0.00,VWS V14.01,2013-10-02 00:42:00,
2013-10-01 20:47:00,67.7,62.4,29.75,WSW,244,10.0,13.0,83,0.00,,---,0.00,VWS V14.01,2013-10-02 00:47:00,
2013-10-01 20:52:00,67.6,62.3,29.75,West,277,12.0,14.0,83,0.00,,---,0.00,VWS V14.01,2013-10-02 00:52:00,
2013-10-01 20:57:00,67.5,62.2,29.75,SW,233,5.0,9.0,83,0.00,,---,0.00,VWS V14.01,2013-10-02 00:57:00,
2013-10-01 21:02:00,67.3,62.0,29.75,WSW,252,6.0,11.0,83,0.00,,---,0.00,VWS V14.01,2013-10-02 01:02:00,
2013-10-01 21:07:00,67.2,62.2,29.75,WSW,257,12.0,12.0,84,0.00,,---,0.00,VWS V14.01,2013-10-02 01:07:00,
2013-10-01 21:12:00,67.0,62.0,29.75,West,277,6.0,11.0,84,0.00,,---,0.00,VWS V14.01,2013-10-02 01:12:00,
2013-10-01 21:17:00,66.8,62.2,29.75,WSW,237,8.0,10.0,85,0.00,,---,0.00,VWS V14.01,2013-10-02 01:17:00,
2013-10-01 21:22:00,66.8,62.2,29.76,WSW,237,6.0,12.0,85,0.00,,---,0.00,VWS V14.01,2013-10-02 01:22:00,
2013-10-01 21:27:00,66.6,62.0,29.76,SW,221,7.0,10.0,85,0.00,,---,0.00,VWS V14.01,2013-10-02 01:27:00,
2013-10-01 21:32:00,66.5,61.9,29.76,WSW,248,6.0,10.0,85,0.00,,---,0.00,VWS V14.01,2013-10-02 01:32:00,
2013-10-01 21:37:00,66.5,62.2,29.76,SSW,207,3.0,10.0,86,0.00,,---,0.00,VWS V14.01,2013-10-02 01:37:00,
2013-10-01 21:42:00,66.5,62.2,29.76,SW,221,7.0,10.0,86,0.00,,---,0.00,VWS V14.01,2013-10-02 01:42:00,
2013-10-01 21:47:00,66.5,62.2,29.76,SW,223,5.0,11.0,86,0.00,,---,0.00,VWS V14.01,2013-10-02 01:47:00,
2013-10-01 21:52:00,66.5,62.2,29.76,WSW,251,4.0,11.0,86,0.00,,---,0.00,VWS V14.01,2013-10-02 01:52:00,
2013-10-01 21:57:00,66.4,62.1,29.76,SW,230,3.0,12.0,86,0.00,,---,0.00,VWS V14.01,2013-10-02 01:57:00,
2013-10-01 22:02:00,66.5,62.2,29.75,WSW,244,6.0,13.0,86,0.00,,---,0.00,VWS V14.01,2013-10-02 02:02:00,
2013-10-01 22:07:00,66.5,62.2,29.75,SW,236,3.0,17.0,86,0.00,,---,0.00,VWS V14.01,2013-10-02 02:07:00,
2013-10-01 22:12:00,66.5,62.2,29.76,SW,235,8.0,13.0,86,0.00,,---,0.00,VWS V14.01,2013-10-02 02:12:00,
2013-10-01 22:17:00,66.4,62.1,29.76,WSW,238,7.0,11.0,86,0.00,,---,0.00,VWS V14.01,2013-10-02 02:17:00,
2013-10-01 22:22:00,66.4,62.1,29.76,WSW,248,11.0,13.0,86,0.00,,---,0.00,VWS V14.01,2013-10-02 02:22:00,
2013-10-01 22:27:00,66.3,62.0,29.76,SW,234,6.0,13.0,86,0.00,,---,0.00,VWS V14.01,2013-10-02 02:27:00,
2013-10-01 22:32:00,66.3,62.0,29.76,West,263,11.0,13.0,86,0.00,,---,0.00,VWS V14.01,2013-10-02 02:32:00,
2013-10-01 22:37:00,66.2,61.9,29.76,WSW,250,8.0,14.0,86,0.00,,---,0.00,VWS V14.01,2013-10-02 02:37:00,
2013-10-01 22:42:00,66.2,61.9,29.76,WSW,250,14.0,14.0,86,0.00,,---,0.00,VWS V14.01,2013-10-02 02:42:00,
2013-10-01 22:47:00,66.1,61.8,29.76,WSW,239,6.0,12.0,86,0.00,,---,0.00,VWS V14.01,2013-10-02 02:47:00,
2013-10-01 22:53:00,66.1,61.8,29.76,WSW,240,5.0,11.0,86,0.00,,---,0.00,VWS V14.01,2013-10-02 02:53:00,
2013-10-01 22:58:00,66.0,61.7,29.76,West,259,7.0,12.0,86,0.00,,---,0.00,VWS V14.01,2013-10-02 02:58:00,
2013-10-01 23:03:00,66.1,61.5,29.76,WSW,241,12.0,15.0,85,0.00,,---,0.00,VWS V14.01,2013-10-02 03:03:00,
2013-10-01 23:08:00,66.3,61.3,29.76,WSW,248,11.0,14.0,84,0.00,,---,0.00,VWS V14.01,2013-10-02 03:08:00,
2013-10-01 23:13:00,66.5,61.2,29.76,WSW,245,11.0,18.0,83,0.00,,---,0.00,VWS V14.01,2013-10-02 03:13:00,
2013-10-01 23:18:00,66.7,61.0,29.77,WSW,242,11.0,20.0,82,0.00,,---,0.00,VWS V14.01,2013-10-02 03:18:00,
2013-10-01 23:23:00,66.8,60.8,29.77,WSW,238,13.0,18.0,81,0.00,,---,0.00,VWS V14.01,2013-10-02 03:23:00,
2013-10-01 23:28:00,67.1,60.7,29.77,WSW,244,13.0,23.0,80,0.00,,---,0.00,VWS V14.01,2013-10-02 03:28:00,
2013-10-01 23:33:00,67.2,60.1,29.77,WSW,257,15.0,18.0,78,0.00,,---,0.00,VWS V14.01,2013-10-02 03:33:00,
2013-10-01 23:38:00,67.3,59.8,29.78,WNW,283,11.0,18.0,77,0.00,,---,0.00,VWS V14.01,2013-10-02 03:38:00,
2013-10-01 23:43:00,67.3,59.5,29.78,SW,234,19.0,22.0,76,0.00,,---,0.00,VWS V14.01,2013-10-02 03:43:00,
2013-10-01 23:48:00,67.4,59.2,29.78,WSW,244,12.0,23.0,75,0.00,,---,0.00,VWS V14.01,2013-10-02 03:48:00,
2013-10-01 23:53:00,67.5,58.5,29.78,WSW,248,16.0,26.0,73,0.00,,---,0.00,VWS V14.01,2013-10-02 03:53:00,
2013-10-01 23:58:00,67.4,58.8,29.78,WSW,241,14.0,19.0,74,0.00,,---,0.00,VWS V14.01,2013-10-02 03:58:00,